sat.trackr.live / text

‹ back to catalog

SATGUS

NORAD 62713 · 2025-009DJ

PAYLOAD ACTIVE UNKNOWN

§ Identity

Operator
Country
US
Launch date
2025-01-14
Launch site
AFWTR
Launch vehicle
Mass (kg)
RCS (m²)

External: N2YO · Heavens-Above · Gunter

§ Orbital elements

Epoch: 2026-09-22T17:49:42.456864Z

Period
95.85 min
Inclination
97.6891°
Eccentricity
0.0005273
Mean motion
15.02298441 rev/d
Perigee alt
556.2 km
Apogee alt
563.5 km
Semi-major
6,937.9 km
B*
2.9078e-4
RAAN
346.2197°
Arg perigee
125.8699°
Mean anomaly
234.3016°
Rev number
9,220

§ Raw data

SATGUS1 62713U 25009DJ  26265.74285251  .00003781  00000+0  29078-3 0  99972 62713  97.6891 346.2197 0005273 125.8699 234.3016 15.02298441 92208

JSON: /api/v1/satellites/62713 · /tle

For live sub-satellite position, see the globe view (requires WebGL).

§ Visibility from observer

Set your observer location to see the next 7 days of passes ≥ 10°. The values pass through the URL so the page stays shareable.

No JS? Fill the form by hand. The geolocation button needs JavaScript.

§ Radio — SatNOGS DB

ModeDescriptionDownlinkUplink
FSK Mode U - Transmitter 400.200 MHz
BPSK S-band telemetry 2.215 GHz

2 transmitters · refreshed weekly from db.satnogs.org